Regional Weather Roundup
Issued by NWS

Home | Current Version | Previous Version | Graphics & Text | Print | Product List | Glossary On
Versions: 1 2 3 4 5 6 7 8 9 10 11 12 13 14 15 16 17 18 19 20 21 22 23 24 25 26 27 28
000
ASUS45 KCYS 300010
RWRWY

WYOMING REGIONAL WEATHER ROUNDUP
NATIONAL WEATHER SERVICE CHEYENNE WY
600 PM MDT FRI JUL 29 2016

NOTE:  "FAIR" INDICATES FEW OR NO CLOUDS BELOW 12,000 FEET
WITH NO SIGNIFICANT WEATHER AND/OR OBSTRUCTIONS TO VISIBILITY.

WYZ001-300100-
YELLOWSTONE NATIONAL PARK

CITY           SKY/WX    TMP DP  RH WIND       PRES   REMARKS
LK YELLOWSTONE   N/A     77  29  17 VRB6      30.25S
6HR MIN TEMP:  65; 6HR MAX TEMP:  80;

W YELLOWSTONE  NOT AVBL

$$
WYZ002>013-054>058-071-098>099-300100-
NORTHERN WYOMING

CITY           SKY/WX    TMP DP  RH WIND       PRES   REMARKS
JACKSON        NOT AVBL
CODY           PTSUNNY   75  52  43 N8        30.07S
GREYBULL       FAIR      91  42  18 N16       29.94F
6HR MIN TEMP:  82; 6HR MAX TEMP:  93;

WORLAND        FAIR      91  42  18 N12       29.96S
6HR MIN TEMP:  83; 6HR MAX TEMP:  94;

SHERIDAN       FAIR      89  45  21 CALM      30.00F
6HR MIN TEMP:  81; 6HR MAX TEMP:  90;

BUFFALO        FAIR      83  44  25 VRB3      30.08F
6HR MIN TEMP:  78; 6HR MAX TEMP:  86; 6HR PCP: TRACE;

GILLETTE       FAIR      82  46  28 N10       30.03F
6HR MIN TEMP:  79; 6HR MAX TEMP:  86;

HULETT         FAIR      81  50  34 NE6       30.06S
NEWCASTLE      MOCLDY    81  43  26 NW9       30.04R

$$
WYZ014>020-022>026-101>103-300100-
CENTRAL WYOMING

CITY           SKY/WX    TMP DP  RH WIND       PRES   REMARKS
BIG PINEY      FAIR      86  30  13 NW13      30.17R
6HR MIN TEMP:  76; 6HR MAX TEMP:  89;

PINEDALE       FAIR      82  32  16 NW13G20   30.17S
DUBOIS         FAIR      79  28  15 N13G18    30.16S
LANDER         FAIR      86  43  22 NE15      30.02S
6HR MIN TEMP:  78; 6HR MAX TEMP:  92;

RIVERTON       FAIR      87  34  15 N18       30.02F
6HR MIN TEMP:  77; 6HR MAX TEMP:  90;

CASPER         FAIR      80  48  32 E22G30    30.06R
6HR MIN TEMP:  80; 6HR MAX TEMP:  90; 6HR PCP: TRACE;

DOUGLAS        FAIR      76  52  43 SE16      30.10S
6HR MIN TEMP:  68; 6HR MAX TEMP:  89; 6HR PCP: TRACE;


$$
WYZ021-027>030-104>119-300100-
SOUTHERN WYOMING

CITY           SKY/WX    TMP DP  RH WIND       PRES   REMARKS
EVANSTON       FAIR      86  27  11 NW17G26   30.21S
6HR MIN TEMP:  83; 6HR MAX TEMP:  90;

KEMMERER         N/A     84  27  12 W23G30    30.20S
FORT BRIDGER   FAIR      89  27  10 NW17G25   30.21S
ROCK SPRINGS   FAIR      88  14   6 NW30G38   30.12S
6HR MIN TEMP:  81; 6HR MAX TEMP:  91;

DIXON          FAIR      90  29  11 W13G33    30.12F
RAWLINS        FAIR      88  22   9 NW16G24   30.11F
6HR MIN TEMP:  79; 6HR MAX TEMP:  90;

SARATOGA       FAIR      86  28  12 W16       30.14S
LARAMIE        FAIR      76  50  40 E14G23    30.18R
6HR MIN TEMP:  72; 6HR MAX TEMP:  84;

CHEYENNE       FAIR      69  57  65 SE13      30.16R
6HR MIN TEMP:  63; 6HR MAX TEMP:  80; 6HR PCP:  0.30;

TORRINGTON     RAIN      59  55  87 NE29G53   30.14R FOG
6HR MIN TEMP:  69; 6HR MAX TEMP:  88; 6HR PCP:  0.02;

PINE BLUFFS    MOCLDY    70  54  56 SE18G30   30.09F

$$




USA.gov is the U.S. government's official web portal to all federal, state and local government web resources and services.